#timestamp,LO_Frequency,Hit,StdDev 
1588460415.6,286046999.1,N
1588460435.5,286046999.1,N
1588460455.3,286046999.0,N
1588460475.1,286046999.5,N
1588460495.9,286046998.4,N
1588460515.7,286046999.3,N
1588460535.6,286046998.1,N
1588460555.4,286047000.2,N
1588460575.2,286046998.7,N
1588460595.1,286046999.8,N
1588460596.0,286046999.8,N
1588460615.8,286047003.9,N
1588460635.7,286047004.1,N
1588460655.5,286047003.2,N
1588460675.3,286047002.0,N
1588460695.2,286047001.3,N
1588460715.0,286047004.0,N
1588460715.9,286047004.0,N
1588460735.7,286047003.4,N
1588460755.6,286047004.3,N
1588460775.4,286047002.4,N
1588460795.3,286047002.6,N
1588460815.1,286047002.7,N
1588460835.8,286047004.4,N
1588460855.7,286047001.5,N
1588460875.5,286047002.6,N
1588460895.4,286047002.8,N
1588460915.2,286047002.8,N
1588460935.0,286047001.0,N
1588460935.9,286047001.0,N
1588460955.8,286047002.8,N
1588460975.6,286047002.5,N
1588460995.4,286047004.4,N
1588461015.3,286047004.1,N
1588461035.1,286046998.4,N
1588461055.9,286046998.6,N
1588461075.7,286047000.0,N
1588461095.5,286047002.3,N
1588461115.4,286047001.6,N
1588461135.2,286047002.8,N
1588461155.1,286046999.7,N
1588461156.0,286046999.7,N
1588461175.8,286046998.6,N
1588461195.6,286047000.1,N
1588461215.5,286047000.1,N
1588461235.3,286047001.9,N
1588461255.1,286047004.1,N
1588461275.9,286047003.7,N
1588461295.7,286047003.8,N
1588461315.6,286047000.9,N
1588461335.4,286046998.5,N
1588461355.2,286047001.5,N
1588461375.1,286047003.6,N
1588461376.0,286047003.6,N
1588461395.8,286047003.9,N
1588461415.7,286047003.8,N
1588461435.5,286047004.2,N
1588461455.3,286047003.1,N
1588461475.2,286047003.8,N
1588461495.0,286047003.7,N
1588461495.9,286047003.7,N
1588461515.8,286047005.6,N
1588461535.6,286047006.0,N
1588461555.4,286047005.7,N
1588461575.3,286047004.5,N
1588461595.1,286047003.2,N
1588461615.9,286047003.6,N
1588461635.7,286047003.9,N
1588461655.5,286047001.7,N
1588461675.4,286047004.5,N
1588461695.2,286047004.8,N
1588461715.0,286047004.6,N
1588461715.9,286047004.6,N
1588461735.8,286047005.9,Y
1588461755.6,286047001.0,P
1588461775.5,286047002.8,N
1588461795.3,286047005.9,P
1588461815.1,286047003.0,N
1588461835.9,286047004.4,N
1588461855.7,286047001.9,N
1588461875.6,286047001.3,N
1588461895.4,286047002.6,N
1588461915.2,286047002.5,N
1588461935.1,286047001.5,N
1588461936.0,286047001.5,N
1588461955.8,286047004.3,Y
1588461975.6,286046999.2,P
1588461995.5,286046998.2,N
1588462015.3,286046998.2,N
1588462035.2,286047000.5,N
1588462055.9,286046998.3,N
1588462075.7,286047001.1,N
1588462095.6,286046998.1,N
1588462115.4,286046998.7,N
1588462135.3,286047000.2,N
1588462155.1,286047001.4,N
1588462156.0,286047001.4,N
1588462175.8,286047001.6,N
1588462195.7,286047007.3,Y
1588462215.5,286047006.4,P
1588462235.4,286047007.5,N
1588462255.2,286047004.5,N
1588462275.0,286047006.2,N
1588462275.9,286047006.2,N
1588462295.8,286047007.0,N
1588462315.6,286047007.5,Y
1588462335.5,286047000.5,P
1588462355.3,286046998.3,N
1588462375.1,286047000.9,N
1588462395.9,286047000.8,N
1588462415.7,286046999.0,N
1588462435.5,286046997.2,N
1588462455.4,286046996.8,N
1588462475.2,286047001.1,N
1588462495.1,286046997.0,N
1588462496.0,286046997.0,N
1588462515.8,286046997.7,N
1588462535.6,286046998.3,N
1588462555.5,286046999.0,N
1588462575.3,286046998.3,N
1588462595.2,286046999.2,N
1588462615.9,286046996.5,N
1588462635.7,286046999.4,N
1588462655.6,286046996.5,N
1588462675.4,286046999.4,N
1588462695.2,286046996.8,N
1588462715.1,286046999.1,N
1588462716.0,286046999.1,N
1588462735.8,286046996.7,N
1588462755.7,286046996.7,N
1588462775.5,286046997.4,N
1588462795.3,286046996.7,N
1588462815.2,286046996.7,N
1588462835.0,286046994.9,N
1588462835.9,286046994.9,N
1588462855.8,286046995.0,N
1588462875.6,286046997.3,N
1588462895.4,286046999.1,N
1588462915.3,286046998.1,N
1588462935.1,286047000.1,N
1588462955.8,286047001.0,N
1588462975.7,286046998.2,N
1588462995.5,286047000.4,N
1588463015.4,286047001.1,N
1588463035.2,286046998.8,N
1588463055.0,286047000.3,N
1588463055.9,286047000.3,N
1588463075.8,286047000.2,N
1588463095.6,286047000.5,N
1588463115.4,286046996.6,N
1588463135.3,286046999.9,N
1588463155.1,286047002.6,N
1588463175.9,286047002.0,N
1588463195.7,286047003.0,N
1588463215.5,286047004.0,N
1588463235.4,286047003.9,N
1588463255.2,286047003.3,N
1588463275.1,286047004.1,N
1588463276.0,286047004.1,N
1588463295.8,286047004.4,N
1588463315.6,286047001.8,N
1588463335.5,286047005.3,N
1588463355.3,286047007.5,N
1588463375.2,286047003.7,N
1588463395.9,286047001.5,N
1588463415.7,286047002.3,N
1588463435.6,286047002.3,N
1588463455.4,286047003.7,N
1588463475.2,286047001.3,N
1588463495.1,286047001.7,N
1588463496.0,286047001.7,N
1588463515.8,286047002.4,N
1588463535.7,286047004.3,N
1588463555.5,286047005.2,N
1588463575.4,286047005.1,N
1588463595.2,286047003.8,N
1588463615.0,286047000.1,N
1588463615.9,286047000.1,N
1588463635.8,286047001.8,N
1588463655.6,286047003.3,N
1588463675.5,286047005.8,Y
1588463695.3,286047004.2,P
1588463715.1,286047002.2,P
1588463735.9,286047003.8,P
1588463755.7,286047003.9,Y
1588463775.6,286046999.4,P
1588463795.4,286046996.5,N
1588463815.2,286046997.9,N
1588463835.1,286046995.1,N
1588463836.0,286046995.1,N
1588463855.8,286046995.6,N
1588463875.6,286046996.2,N
1588463895.5,286046997.0,N
1588463915.3,286046996.8,N
1588463935.2,286046995.0,N
1588463955.9,286046998.3,N
1588463975.7,286046999.5,N
1588463995.6,286046997.6,N
